This is the latest recevied weather packets stored in our database for station/object N8BAP. If no packets are shown the sender has not sent any weather packets the latest 10 day(s).
| Time | Temp. | Humidity | Pressure | Rain* | Wind** | Luminosity | Snow |
|---|---|---|---|---|---|---|---|
| 1778173122 | 13.33° C | 46% | 1019.9 hPa | 0 mm | - | 714 W/m² | - |
| 1778172818 | 12.78° C | 51% | 1019.9 hPa | 0 mm | - | 620 W/m² | - |
| 1778172514 | 13.33° C | 46% | 1019.9 hPa | 0 mm | - | 759 W/m² | - |
| 1778172211 | 12.78° C | 49% | 1019.9 hPa | 0 mm | - | 728 W/m² | - |
| 1778171908 | 13.33° C | 45% | 1019.9 hPa | 0 mm | - | 704 W/m² | - |
| 1778171606 | 13.33° C | 50% | 1020.1 hPa | 0 mm | - | 692 W/m² | - |
| 1778171302 | 12.78° C | 45% | 1020.3 hPa | 0 mm | - | 672 W/m² | - |
| 1778170998 | 12.78° C | 47% | 1020.1 hPa | 0 mm | - | 629 W/m² | - |
| 1778170695 | 12.78° C | 49% | 1020.1 hPa | 0 mm | - | 609 W/m² | - |
| 1778170392 | 12.78° C | 52% | 1020 hPa | 0 mm | - | 658 W/m² | - |
| 1778170088 | 12.78° C | 45% | 1020.1 hPa | 0 mm | - | 598 W/m² | - |
| 1778169784 | 12.78° C | 45% | 1019.9 hPa | 0 mm | - | 641 W/m² | - |
| 1778169480 | 12.78° C | 49% | 1020 hPa | 0 mm | - | 695 W/m² | - |
| 1778169176 | 12.22° C | 50% | 1020 hPa | 0 mm | - | 735 W/m² | - |
| 1778168873 | 12.78° C | 47% | 1020 hPa | 0 mm | - | 723 W/m² | - |
| 1778168570 | 12.78° C | 49% | 1020 hPa | 0 mm | - | 726 W/m² | - |
| 1778168267 | 12.22° C | 54% | 1020.1 hPa | 0 mm | - | 731 W/m² | - |
| 1778167963 | 12.78° C | 47% | 1019.6 hPa | 0 mm | - | 736 W/m² | - |
| 1778167660 | 12.22° C | 57% | 1019.9 hPa | 0 mm | - | 747 W/m² | - |
| 1778167356 | 12.22° C | 51% | 1019.9 hPa | 0 mm | - | 733 W/m² | - |
| 1778167052 | 12.22° C | 54% | 1019.8 hPa | 0 mm | - | 742 W/m² | - |
| 1778166749 | 12.22° C | 47% | 1019.9 hPa | 0 mm | - | 769 W/m² | - |
| 1778166446 | 12.22° C | 51% | 1019.5 hPa | 0 mm | - | 760 W/m² | - |
| 1778166143 | 12.22° C | 51% | 1019.8 hPa | 0 mm | - | 743 W/m² | - |
| 1778165838 | 12.22° C | 50% | 1019.8 hPa | 0 mm | - | 749 W/m² | - |
* Rain latest hour (hover to see other rain measurements)
** Current wind speed in m/s (hover to see current wind gust speed)